VU3ZAG-WX Weather Reports


time (UTC)temp
F
wind
direction
speed
knots
gust
knots
rain 1hr
in
rain 24hr
in
rain mn
in
humidity
%
barometer
mb
20260504235947 83 0.0 0.0 0.00 0.00 0.00 73 1009.1
20260504234941 83 0.0 0.0 0.00 0.00 0.00 73 1009.1
20260504233937 83 0.0 0.0 0.00 0.00 0.00 73 1009.1
20260504232932 83 0.0 0.0 0.00 0.00 0.00 73 1009.1
20260504231927 83 0.0 0.0 0.00 0.00 0.00 73 1009.1
20260504230921 83 0.0 0.0 0.00 0.00 0.00 76 1009.0
20260504225916 83 0.0 0.0 0.00 0.00 0.00 76 1008.9
20260504224909 84 0.0 0.0 0.00 0.00 0.00 74 1008.8
20260504223904 84 0.0 0.0 0.00 0.00 0.00 73 1008.7
20260504222858 85 0.0 0.0 0.00 0.00 0.00 71 1008.6
20260504221852 85 0.0 0.0 0.00 0.00 0.00 69 1008.5
20260504220847 85 0.0 0.0 0.00 0.00 0.00 68 1008.5
20260504215842 85 0.0 0.0 0.00 0.00 0.00 70 1008.5
20260504214837 85 0.0 0.0 0.00 0.00 0.00 74 1008.5
20260504213831 85 0.0 0.0 0.00 0.00 0.00 74 1008.6
20260504212826 85 0.0 0.0 0.00 0.00 0.00 68 1008.6
20260504211821 85 0.0 0.0 0.00 0.00 0.00 72 1008.7
20260504210816 85 0.0 0.0 0.00 0.00 0.00 71 1008.7
20260504205810 86 0.0 0.0 0.00 0.00 0.00 69 1008.7
20260504204805 86 0.0 0.0 0.00 0.00 0.00 68 1008.7
20260504203759 86 0.0 0.0 0.00 0.00 0.00 68 1008.7
20260504202754 86 0.0 0.0 0.00 0.00 0.00 68 1008.8
20260504201748 85 0.0 0.0 0.00 0.00 0.00 68 1008.9
20260504200744 85 0.0 0.0 0.00 0.00 0.00 69 1008.9
20260504195738 84 0.0 0.0 0.00 0.00 0.00 69 1009.1
20260504194733 84 0.0 0.0 0.00 0.00 0.00 73 1009.2
20260504193727 84 0.0 0.0 0.00 0.00 0.00 71 1009.3
20260504192721 84 0.0 0.0 0.00 0.00 0.00 68 1009.4
20260504191715 84 0.0 0.0 0.00 0.00 0.00 74 1009.6
20260504190709 85 0.0 0.0 0.00 0.00 0.00 71 1009.8
20260504185703 85 0.0 0.0 0.00 0.00 0.00 71 1010.0
20260504184658 85 0.0 0.0 0.00 0.00 0.00 73 1010.1
20260504183651 86 0.0 0.0 0.00 0.00 0.00 69 1010.2
20260504182646 85 0.0 0.0 0.00 0.00 0.00 75 1010.4
20260504181641 86 0.0 0.0 0.00 0.00 0.00 74 1010.5
20260504180635 87 0.0 0.0 0.00 0.00 0.00 69 1010.5
20260504175629 87 0.0 0.0 0.00 0.00 0.00 71 1010.7
20260504174623 87 0.0 0.0 0.00 0.00 0.00 70 1010.8
20260504173618 87 0.0 0.0 0.00 0.00 0.00 68 1010.9
20260504172612 86 0.0 0.0 0.00 0.00 0.00 72 1011.0
20260504171606 86 0.0 0.0 0.00 0.00 0.00 72 1011.0
20260504170600 86 0.0 0.0 0.00 0.00 0.00 70 1011.0
20260504150452 84 0.0 0.0 0.00 0.00 0.00 74 1009.9
20260504140416 84 0.0 0.0 0.00 0.00 0.00 77 1009.3
20260504130343 90 0.0 0.0 0.00 0.00 0.00 72 1007.7
20260504120309 99 0.0 0.0 0.00 0.00 0.00 56 1006.4
20260504110235 101 0.0 0.0 0.00 0.00 0.00 52 1005.9
20260504100158 102 0.0 0.0 0.00 0.00 0.00 50 1006.6
20260504090125 102 0.0 0.0 0.00 0.00 0.00 49 1007.4
20260504081054 101 0.0 0.0 0.00 0.00 0.00 49 1008.0
20260504045857 100 0.0 0.0 0.00 0.00 0.00 50 1009.8
20260504044837 100 0.0 0.0 0.00 0.00 0.00 49 1009.8
20260504043832 100 0.0 0.0 0.00 0.00 0.00 49 1009.9
20260504042826 99 0.0 0.0 0.00 0.00 0.00 49 1009.9
20260504041822 99 0.0 0.0 0.00 0.00 0.00 48 1009.9
20260504040816 99 0.0 0.0 0.00 0.00 0.00 50 1009.9
20260504035809 99 0.0 0.0 0.00 0.00 0.00 53 1009.9
20260504034802 99 0.0 0.0 0.00 0.00 0.00 49 1009.9
20260504033754 99 0.0 0.0 0.00 0.00 0.00 48 1009.8
20260504032749 98 0.0 0.0 0.00 0.00 0.00 49 1009.8
20260504031742 97 0.0 0.0 0.00 0.00 0.00 51 1009.7
20260504030735 96 0.0 0.0 0.00 0.00 0.00 54 1009.6
20260504025729 95 0.0 0.0 0.00 0.00 0.00 56 1009.5
20260504024721 96 0.0 0.0 0.00 0.00 0.00 55 1009.3
20260504023715 95 0.0 0.0 0.00 0.00 0.00 54 1009.2
20260504022710 95 0.0 0.0 0.00 0.00 0.00 57 1009.1
20260504021704 95 0.0 0.0 0.00 0.00 0.00 56 1008.9
20260504020659 94 0.0 0.0 0.00 0.00 0.00 54 1008.8
20260504015654 94 0.0 0.0 0.00 0.00 0.00 57 1008.6
20260504014648 93 0.0 0.0 0.00 0.00 0.00 60 1008.5
20260504013643 93 0.0 0.0 0.00 0.00 0.00 58 1008.4
20260504012638 92 0.0 0.0 0.00 0.00 0.00 60 1008.3
20260504011633 92 0.0 0.0 0.00 0.00 0.00 61 1008.2
20260504010628 92 0.0 0.0 0.00 0.00 0.00 59 1008.1
20260504005623 92 0.0 0.0 0.00 0.00 0.00 61 1008.0
20260504004618 91 0.0 0.0 0.00 0.00 0.00 64 1007.9
20260504003612 92 0.0 0.0 0.00 0.00 0.00 61 1007.8
20260504002607 92 0.0 0.0 0.00 0.00 0.00 61 1007.8
20260504001602 91 0.0 0.0 0.00 0.00 0.00 62 1007.7